Year,Month,Day,Hour,Minute,Value (Times are PST for temperature in C)
2016,08,20,00,00,17.30
2016,08,20,00,01,17.30
2016,08,20,00,02,17.30
2016,08,20,00,03,17.30
2016,08,20,00,04,17.30
2016,08,20,00,05,17.20
2016,08,20,00,06,17.20
2016,08,20,00,07,17.20
2016,08,20,00,08,17.20
2016,08,20,00,09,17.20
2016,08,20,00,10,17.20
2016,08,20,00,11,17.20
2016,08,20,00,12,17.20
2016,08,20,00,13,17.20
2016,08,20,00,14,17.20
2016,08,20,00,15,17.20
2016,08,20,00,16,17.10
2016,08,20,00,17,17.10
2016,08,20,00,18,17.10
2016,08,20,00,19,17.10
2016,08,20,00,20,17.10
2016,08,20,00,21,17.10
2016,08,20,00,22,17.00
2016,08,20,00,23,17.00
2016,08,20,00,24,17.00
2016,08,20,00,25,17.00
2016,08,20,00,26,17.00
2016,08,20,00,27,17.00
2016,08,20,00,28,17.00
2016,08,20,00,29,16.90
2016,08,20,00,30,16.90
2016,08,20,00,31,16.90
2016,08,20,00,32,16.90
2016,08,20,00,33,16.90
2016,08,20,00,34,16.90
2016,08,20,00,35,16.80
2016,08,20,00,36,16.80
2016,08,20,00,37,16.80
2016,08,20,00,38,16.70
2016,08,20,00,39,16.70
2016,08,20,00,40,16.60
2016,08,20,00,41,16.60
2016,08,20,00,42,16.60
2016,08,20,00,43,16.50
2016,08,20,00,44,16.50
2016,08,20,00,45,16.40
2016,08,20,00,46,16.40
2016,08,20,00,47,16.30
2016,08,20,00,48,16.30
2016,08,20,00,49,16.30
2016,08,20,00,50,16.20
2016,08,20,00,51,16.20
2016,08,20,00,52,16.20
2016,08,20,00,53,16.20
2016,08,20,00,54,16.10
2016,08,20,00,55,16.10
2016,08,20,00,56,16.10
2016,08,20,00,57,16.00
2016,08,20,00,58,16.00
2016,08,20,00,59,16.00
2016,08,20,01,00,15.90
2016,08,20,01,01,15.90
2016,08,20,01,02,15.90
2016,08,20,01,03,15.90
2016,08,20,01,04,15.90
2016,08,20,01,05,15.80
2016,08,20,01,06,15.80
2016,08,20,01,07,15.80
2016,08,20,01,08,15.80
2016,08,20,01,09,15.80
2016,08,20,01,10,15.70
2016,08,20,01,11,15.70
2016,08,20,01,12,15.70
2016,08,20,01,13,15.70
2016,08,20,01,14,15.70
2016,08,20,01,15,15.70
2016,08,20,01,16,15.70
2016,08,20,01,17,15.70
2016,08,20,01,18,15.70
2016,08,20,01,19,15.80
2016,08,20,01,20,15.80
2016,08,20,01,21,15.80
2016,08,20,01,22,15.80
2016,08,20,01,23,15.80
2016,08,20,01,24,15.80
2016,08,20,01,25,15.80
2016,08,20,01,26,15.80
2016,08,20,01,27,15.80
2016,08,20,01,28,15.80
2016,08,20,01,29,15.80
2016,08,20,01,30,15.80
2016,08,20,01,31,15.80
2016,08,20,01,32,15.90
2016,08,20,01,33,15.90
2016,08,20,01,34,15.90
2016,08,20,01,35,15.90
2016,08,20,01,36,15.90
2016,08,20,01,37,15.90
2016,08,20,01,38,16.00
2016,08,20,01,39,16.00
2016,08,20,01,40,16.10
2016,08,20,01,41,16.10
2016,08,20,01,42,16.10
2016,08,20,01,43,16.10
2016,08,20,01,44,16.10
2016,08,20,01,45,16.10
2016,08,20,01,46,16.10
2016,08,20,01,47,16.20
2016,08,20,01,48,16.20
2016,08,20,01,49,16.20
2016,08,20,01,50,16.20
2016,08,20,01,51,16.20
2016,08,20,01,52,16.30
2016,08,20,01,53,16.30
2016,08,20,01,54,16.30
2016,08,20,01,55,16.30
2016,08,20,01,56,16.30
2016,08,20,01,57,16.50
2016,08,20,01,58,16.60
2016,08,20,01,59,16.70
2016,08,20,02,00,16.70
2016,08,20,02,01,16.70
2016,08,20,02,02,16.70
2016,08,20,02,03,16.70
2016,08,20,02,04,16.70
2016,08,20,02,05,16.70
2016,08,20,02,06,16.70
2016,08,20,02,07,16.70
2016,08,20,02,08,16.70
2016,08,20,02,09,16.70
2016,08,20,02,10,16.80
2016,08,20,02,11,16.80
2016,08,20,02,12,16.80
2016,08,20,02,13,16.80
2016,08,20,02,14,16.80
2016,08,20,02,15,16.80
2016,08,20,02,16,16.90
2016,08,20,02,17,16.90
2016,08,20,02,18,16.90
2016,08,20,02,19,16.90
2016,08,20,02,20,16.90
2016,08,20,02,21,16.90
2016,08,20,02,22,16.90
2016,08,20,02,23,16.90
2016,08,20,02,24,17.00
2016,08,20,02,25,17.00
2016,08,20,02,26,17.10
2016,08,20,02,27,17.10
2016,08,20,02,28,17.10
2016,08,20,02,29,17.20
2016,08,20,02,30,17.20
2016,08,20,02,31,17.10
2016,08,20,02,32,17.10
2016,08,20,02,33,17.10
2016,08,20,02,34,17.10
2016,08,20,02,35,17.10
2016,08,20,02,36,17.10
2016,08,20,02,37,17.00
2016,08,20,02,38,17.00
2016,08,20,02,39,17.00
2016,08,20,02,40,16.90
2016,08,20,02,41,16.90
2016,08,20,02,42,16.90
2016,08,20,02,43,16.80
2016,08,20,02,44,16.80
2016,08,20,02,45,16.80
2016,08,20,02,46,16.80
2016,08,20,02,47,16.70
2016,08,20,02,48,16.70
2016,08,20,02,49,16.70
2016,08,20,02,50,16.60
2016,08,20,02,51,16.60
2016,08,20,02,52,16.50
2016,08,20,02,53,16.40
2016,08,20,02,54,16.40
2016,08,20,02,55,16.30
2016,08,20,02,56,16.30
2016,08,20,02,57,16.30
2016,08,20,02,58,16.20
2016,08,20,02,59,16.20
2016,08,20,03,00,16.10
2016,08,20,03,01,16.10
2016,08,20,03,02,16.10
2016,08,20,03,03,16.10
2016,08,20,03,04,16.10
2016,08,20,03,05,16.10
2016,08,20,03,06,16.00
2016,08,20,03,07,16.00
2016,08,20,03,08,16.00
2016,08,20,03,09,16.00
2016,08,20,03,10,16.00
2016,08,20,03,11,16.10
2016,08,20,03,12,16.10
2016,08,20,03,13,16.10
2016,08,20,03,14,16.10
2016,08,20,03,15,16.10
2016,08,20,03,16,16.20
2016,08,20,03,17,16.20
2016,08,20,03,18,16.20
2016,08,20,03,19,16.20
2016,08,20,03,20,16.20
2016,08,20,03,21,16.20
2016,08,20,03,22,16.20
2016,08,20,03,23,16.20
2016,08,20,03,24,16.20
2016,08,20,03,25,16.10
2016,08,20,03,26,16.10
2016,08,20,03,27,16.10
2016,08,20,03,28,16.10
2016,08,20,03,29,16.10
2016,08,20,03,30,16.10
2016,08,20,03,31,16.00
2016,08,20,03,32,16.00
2016,08,20,03,33,16.00
2016,08,20,03,34,15.90
2016,08,20,03,35,15.90
2016,08,20,03,36,15.90
2016,08,20,03,37,15.80
2016,08,20,03,38,15.80
2016,08,20,03,39,15.80
2016,08,20,03,40,15.80
2016,08,20,03,41,15.80
2016,08,20,03,42,15.70
2016,08,20,03,43,15.70
2016,08,20,03,44,15.70
2016,08,20,03,45,15.70
2016,08,20,03,46,15.70
2016,08,20,03,47,15.60
2016,08,20,03,48,15.60
2016,08,20,03,49,15.60
2016,08,20,03,50,15.60
2016,08,20,03,51,15.60
2016,08,20,03,52,15.60
2016,08,20,03,53,15.50
2016,08,20,03,54,15.50
2016,08,20,03,55,15.50
2016,08,20,03,56,15.40
2016,08,20,03,57,15.40
2016,08,20,03,58,15.30
2016,08,20,03,59,15.30
2016,08,20,04,00,15.30
2016,08,20,04,01,15.30
2016,08,20,04,02,15.20
2016,08,20,04,03,15.20
2016,08,20,04,04,15.10
2016,08,20,04,05,15.10
2016,08,20,04,06,15.10
2016,08,20,04,07,15.10
2016,08,20,04,08,15.00
2016,08,20,04,09,15.00
2016,08,20,04,10,15.00
2016,08,20,04,11,15.00
2016,08,20,04,12,14.90
2016,08,20,04,13,15.00
2016,08,20,04,14,15.00
2016,08,20,04,15,15.00
2016,08,20,04,16,15.00
2016,08,20,04,17,15.10
2016,08,20,04,18,15.10
2016,08,20,04,19,15.20
2016,08,20,04,20,15.20
2016,08,20,04,21,15.30
2016,08,20,04,22,15.30
2016,08,20,04,23,15.30
2016,08,20,04,24,15.30
2016,08,20,04,25,15.30
2016,08,20,04,26,15.30
2016,08,20,04,27,15.30
2016,08,20,04,28,15.30
2016,08,20,04,29,15.30
2016,08,20,04,30,15.30
2016,08,20,04,31,15.30
2016,08,20,04,32,15.30
2016,08,20,04,33,15.30
2016,08,20,04,34,15.30
2016,08,20,04,35,15.30
2016,08,20,04,36,15.30
2016,08,20,04,37,15.30
2016,08,20,04,38,15.20
2016,08,20,04,39,15.20
2016,08,20,04,40,15.20
2016,08,20,04,41,15.20
2016,08,20,04,42,15.20
2016,08,20,04,43,15.20
2016,08,20,04,44,15.20
2016,08,20,04,45,15.20
2016,08,20,04,46,15.20
2016,08,20,04,47,15.20
2016,08,20,04,48,15.20
2016,08,20,04,49,15.20
2016,08,20,04,50,15.20
2016,08,20,04,51,15.20
2016,08,20,04,52,15.20
2016,08,20,04,53,15.20
2016,08,20,04,54,15.20
2016,08,20,04,55,15.20
2016,08,20,04,56,15.30
2016,08,20,04,57,15.30
2016,08,20,04,58,15.30
2016,08,20,04,59,15.30
2016,08,20,05,00,15.20
2016,08,20,05,01,15.20
2016,08,20,05,02,15.20
2016,08,20,05,03,15.20
2016,08,20,05,04,15.20
2016,08,20,05,05,15.10
2016,08,20,05,06,15.10
2016,08,20,05,07,15.10
2016,08,20,05,08,15.10
2016,08,20,05,09,15.10
2016,08,20,05,10,15.10
2016,08,20,05,11,15.20
2016,08,20,05,12,15.20
2016,08,20,05,13,15.20
2016,08,20,05,14,15.20
2016,08,20,05,15,15.30
2016,08,20,05,16,15.30
2016,08,20,05,17,15.40
2016,08,20,05,18,15.40
2016,08,20,05,19,15.50
2016,08,20,05,20,15.60
2016,08,20,05,21,15.60
2016,08,20,05,22,15.70
2016,08,20,05,23,15.80
2016,08,20,05,24,15.90
2016,08,20,05,25,15.90
2016,08,20,05,26,16.00
2016,08,20,05,27,16.00
2016,08,20,05,28,16.10
2016,08,20,05,29,16.10
2016,08,20,05,30,16.10
2016,08,20,05,31,16.10
2016,08,20,05,32,16.10
2016,08,20,05,33,16.10
2016,08,20,05,34,16.20
2016,08,20,05,35,16.20
2016,08,20,05,36,16.20
2016,08,20,05,37,16.20
2016,08,20,05,38,16.20
2016,08,20,05,39,16.20
2016,08,20,05,40,16.20
2016,08,20,05,41,16.20
2016,08,20,05,42,16.10
2016,08,20,05,43,16.10
2016,08,20,05,44,16.10
2016,08,20,05,45,16.10
2016,08,20,05,46,16.10
2016,08,20,05,47,16.10
2016,08,20,05,48,16.00
2016,08,20,05,49,16.00
2016,08,20,05,50,16.00
2016,08,20,05,51,15.90
2016,08,20,05,52,15.90
2016,08,20,05,53,15.90
2016,08,20,05,54,15.90
2016,08,20,05,55,15.90
2016,08,20,05,56,15.90
2016,08,20,05,57,15.90
2016,08,20,05,58,15.90
2016,08,20,05,59,15.90
2016,08,20,06,00,15.90
2016,08,20,06,01,15.80
2016,08,20,06,02,15.80
2016,08,20,06,03,15.80
2016,08,20,06,04,15.80
2016,08,20,06,05,15.80
2016,08,20,06,06,15.70
2016,08,20,06,07,15.70
2016,08,20,06,08,15.70
2016,08,20,06,09,15.70
2016,08,20,06,10,15.70
2016,08,20,06,11,15.60
2016,08,20,06,12,15.60
2016,08,20,06,13,15.60
2016,08,20,06,14,15.60
2016,08,20,06,15,15.60
2016,08,20,06,16,15.50
2016,08,20,06,17,15.50
2016,08,20,06,18,15.50
2016,08,20,06,19,15.50
2016,08,20,06,20,15.40
2016,08,20,06,21,15.40
2016,08,20,06,22,15.40
2016,08,20,06,23,15.40
2016,08,20,06,24,15.40
2016,08,20,06,25,15.30
2016,08,20,06,26,15.30
2016,08,20,06,27,15.30
2016,08,20,06,28,15.30
2016,08,20,06,29,15.30
2016,08,20,06,30,15.30
2016,08,20,06,31,15.20
2016,08,20,06,32,15.20
2016,08,20,06,33,15.20
2016,08,20,06,34,15.20
2016,08,20,06,35,15.20
2016,08,20,06,36,15.20
2016,08,20,06,37,15.20
2016,08,20,06,38,15.20
2016,08,20,06,39,15.20
2016,08,20,06,40,15.20
2016,08,20,06,41,15.20
2016,08,20,06,42,15.20
2016,08,20,06,43,15.20
2016,08,20,06,44,15.20
2016,08,20,06,45,15.20
2016,08,20,06,46,15.20
2016,08,20,06,47,15.20
2016,08,20,06,48,15.20
2016,08,20,06,49,15.10
2016,08,20,06,50,15.10
2016,08,20,06,51,15.10
2016,08,20,06,52,15.10
2016,08,20,06,53,15.20
2016,08,20,06,54,15.20
2016,08,20,06,55,15.20
2016,08,20,06,56,15.20
2016,08,20,06,57,15.20
2016,08,20,06,58,15.30
2016,08,20,06,59,15.30
2016,08,20,07,00,15.30
2016,08,20,07,01,15.30
2016,08,20,07,02,15.40
2016,08,20,07,03,15.40
2016,08,20,07,04,15.50
2016,08,20,07,05,15.50
2016,08,20,07,06,15.60
2016,08,20,07,07,15.70
2016,08,20,07,08,15.80
2016,08,20,07,09,15.90
2016,08,20,07,10,16.00
2016,08,20,07,11,16.00
2016,08,20,07,12,16.10
2016,08,20,07,13,16.20
2016,08,20,07,14,16.30
2016,08,20,07,15,16.40
2016,08,20,07,16,16.50
2016,08,20,07,17,16.60
2016,08,20,07,18,16.70
2016,08,20,07,19,16.70
2016,08,20,07,20,16.80
2016,08,20,07,21,17.00
2016,08,20,07,22,17.10
2016,08,20,07,23,17.20
2016,08,20,07,24,17.30
2016,08,20,07,25,17.40
2016,08,20,07,26,17.50
2016,08,20,07,27,17.60
2016,08,20,07,28,17.70
2016,08,20,07,29,17.70
2016,08,20,07,30,17.80
2016,08,20,07,31,17.90
2016,08,20,07,32,17.90
2016,08,20,07,33,18.00
2016,08,20,07,34,18.00
2016,08,20,07,35,18.10
2016,08,20,07,36,18.10
2016,08,20,07,37,18.20
2016,08,20,07,38,18.20
2016,08,20,07,39,18.30
2016,08,20,07,40,18.30
2016,08,20,07,41,18.40
2016,08,20,07,42,18.40
2016,08,20,07,43,18.40
2016,08,20,07,44,18.40
2016,08,20,07,45,18.50
2016,08,20,07,46,18.60
2016,08,20,07,47,18.60
2016,08,20,07,48,18.60
2016,08,20,07,49,18.70
2016,08,20,07,50,18.70
2016,08,20,07,51,18.70
2016,08,20,07,52,18.80
2016,08,20,07,53,18.80
2016,08,20,07,54,18.80
2016,08,20,07,55,18.90
2016,08,20,07,56,18.90
2016,08,20,07,57,19.00
2016,08,20,07,58,19.00
2016,08,20,07,59,19.10
2016,08,20,08,00,19.10
2016,08,20,08,01,19.10
2016,08,20,08,02,19.10
2016,08,20,08,03,19.10
2016,08,20,08,04,19.20
2016,08,20,08,05,19.20
2016,08,20,08,06,19.20
2016,08,20,08,07,19.20
2016,08,20,08,08,19.20
2016,08,20,08,09,19.30
2016,08,20,08,10,19.30
2016,08,20,08,11,19.30
2016,08,20,08,12,19.30
2016,08,20,08,13,19.40
2016,08,20,08,14,19.40
2016,08,20,08,15,19.40
2016,08,20,08,16,19.50
2016,08,20,08,17,19.60
2016,08,20,08,18,19.60
2016,08,20,08,19,19.60
2016,08,20,08,20,19.70
2016,08,20,08,21,19.70
2016,08,20,08,22,19.80
2016,08,20,08,23,19.80
2016,08,20,08,24,19.80
2016,08,20,08,25,19.80
2016,08,20,08,26,19.90
2016,08,20,08,27,19.90
2016,08,20,08,28,19.90
2016,08,20,08,29,20.00
2016,08,20,08,30,20.00
2016,08,20,08,31,20.00
2016,08,20,08,32,20.00
2016,08,20,08,33,20.00
2016,08,20,08,34,20.00
2016,08,20,08,35,20.10
2016,08,20,08,36,20.10
2016,08,20,08,37,20.10
2016,08,20,08,38,20.20
2016,08,20,08,39,20.20
2016,08,20,08,40,20.20
2016,08,20,08,41,20.30
2016,08,20,08,42,20.30
2016,08,20,08,43,20.40
2016,08,20,08,44,20.40
2016,08,20,08,45,20.40
2016,08,20,08,46,20.50
2016,08,20,08,47,20.50
2016,08,20,08,48,20.60
2016,08,20,08,49,20.60
2016,08,20,08,50,20.60
2016,08,20,08,51,20.70
2016,08,20,08,52,20.70
2016,08,20,08,53,20.80
2016,08,20,08,54,20.90
2016,08,20,08,55,21.00
2016,08,20,08,56,21.10
2016,08,20,08,57,21.10
2016,08,20,08,58,21.20
2016,08,20,08,59,21.20
2016,08,20,09,00,21.20
2016,08,20,09,01,21.20
2016,08,20,09,02,21.30
2016,08,20,09,03,21.30
2016,08,20,09,04,21.30
2016,08,20,09,05,21.30
2016,08,20,09,06,21.30
2016,08,20,09,07,21.40
2016,08,20,09,08,21.40
2016,08,20,09,09,21.40
2016,08,20,09,10,21.40
2016,08,20,09,11,21.40
2016,08,20,09,12,21.40
2016,08,20,09,13,21.40
2016,08,20,09,14,21.40
2016,08,20,09,15,21.30
2016,08,20,09,16,21.30
2016,08,20,09,17,21.20
2016,08,20,09,18,21.00
2016,08,20,09,19,20.90
2016,08,20,09,20,20.80
2016,08,20,09,21,20.70
2016,08,20,09,22,20.60
2016,08,20,09,23,20.50
2016,08,20,09,24,20.40
2016,08,20,09,25,20.40
2016,08,20,09,26,20.40
2016,08,20,09,27,20.40
2016,08,20,09,28,20.30
2016,08,20,09,29,20.30
2016,08,20,09,30,20.20
2016,08,20,09,31,20.20
2016,08,20,09,32,20.30
2016,08,20,09,33,20.30
2016,08,20,09,34,20.30
2016,08,20,09,35,20.30
2016,08,20,09,36,20.20
2016,08,20,09,37,20.20
2016,08,20,09,38,20.20
2016,08,20,09,39,20.20
2016,08,20,09,40,20.20
2016,08,20,09,41,20.20
2016,08,20,09,42,20.30
2016,08,20,09,43,20.30
2016,08,20,09,44,20.30
2016,08,20,09,45,20.30
2016,08,20,09,46,20.30
2016,08,20,09,47,20.30
2016,08,20,09,48,20.30
2016,08,20,09,49,20.30
2016,08,20,09,50,20.30
2016,08,20,09,51,20.40
2016,08,20,09,52,20.40
2016,08,20,09,53,20.50
2016,08,20,09,54,20.50
2016,08,20,09,55,20.50
2016,08,20,09,56,20.50
2016,08,20,09,57,20.40
2016,08,20,09,58,20.40
2016,08,20,09,59,20.40
2016,08,20,10,00,20.40
2016,08,20,10,01,20.40
2016,08,20,10,02,20.40
2016,08,20,10,03,20.40
2016,08,20,10,04,20.50
2016,08,20,10,05,20.50
2016,08,20,10,06,20.60
2016,08,20,10,07,20.60
2016,08,20,10,08,20.60
2016,08,20,10,09,20.60
2016,08,20,10,10,20.60
2016,08,20,10,11,20.60
2016,08,20,10,12,20.60
2016,08,20,10,13,20.50
2016,08,20,10,14,20.40
2016,08,20,10,15,20.30
2016,08,20,10,16,20.30
2016,08,20,10,17,20.30
2016,08,20,10,18,20.30
2016,08,20,10,19,20.40
2016,08,20,10,20,20.40
2016,08,20,10,21,20.40
2016,08,20,10,22,20.40
2016,08,20,10,23,20.40
2016,08,20,10,24,20.40
2016,08,20,10,25,20.40
2016,08,20,10,26,20.50
2016,08,20,10,27,20.60
2016,08,20,10,28,20.60
2016,08,20,10,29,20.70
2016,08,20,10,30,20.70
2016,08,20,10,31,20.70
2016,08,20,10,32,20.80
2016,08,20,10,33,20.80
2016,08,20,10,34,20.80
2016,08,20,10,35,20.80
2016,08,20,10,36,20.80
2016,08,20,10,37,20.80
2016,08,20,10,38,20.90
2016,08,20,10,39,20.90
2016,08,20,10,40,21.00
2016,08,20,10,41,21.00
2016,08,20,10,42,21.00
2016,08,20,10,43,21.00
2016,08,20,10,44,21.00
2016,08,20,10,45,21.10
2016,08,20,10,46,21.10
2016,08,20,10,47,21.10
2016,08,20,10,48,21.00
2016,08,20,10,49,21.00
2016,08,20,10,50,21.10
2016,08,20,10,51,21.10
2016,08,20,10,52,21.20
2016,08,20,10,53,21.30
2016,08,20,10,54,21.30
2016,08,20,10,55,21.30
2016,08,20,10,56,21.30
2016,08,20,10,57,21.30
2016,08,20,10,58,21.30
2016,08,20,10,59,21.30
2016,08,20,11,00,21.40
2016,08,20,11,01,21.50
2016,08,20,11,02,21.60
2016,08,20,11,03,21.60
2016,08,20,11,04,21.60
2016,08,20,11,05,21.60
2016,08,20,11,06,21.60
2016,08,20,11,07,21.60
2016,08,20,11,08,21.60
2016,08,20,11,09,21.70
2016,08,20,11,10,21.70
2016,08,20,11,11,21.70
2016,08,20,11,12,21.70
2016,08,20,11,13,21.70
2016,08,20,11,14,21.70
2016,08,20,11,15,21.70
2016,08,20,11,16,21.70
2016,08,20,11,17,21.80
2016,08,20,11,18,21.90
2016,08,20,11,19,22.00
2016,08,20,11,20,22.10
2016,08,20,11,21,22.10
2016,08,20,11,22,22.10
2016,08,20,11,23,22.00
2016,08,20,11,24,21.90
2016,08,20,11,25,21.80
2016,08,20,11,26,21.70
2016,08,20,11,27,21.70
2016,08,20,11,28,21.60
2016,08,20,11,29,21.60
2016,08,20,11,30,21.50
2016,08,20,11,31,21.50
2016,08,20,11,32,21.50
2016,08,20,11,33,21.50
2016,08,20,11,34,21.60
2016,08,20,11,35,21.60
2016,08,20,11,36,21.60
2016,08,20,11,37,21.50
2016,08,20,11,38,21.50
2016,08,20,11,39,21.50
2016,08,20,11,40,21.60
2016,08,20,11,41,21.60
2016,08,20,11,42,21.60
2016,08,20,11,43,21.70
2016,08,20,11,44,21.70
2016,08,20,11,45,21.70
2016,08,20,11,46,21.70
2016,08,20,11,47,21.60
2016,08,20,11,48,21.60
2016,08,20,11,49,21.60
2016,08,20,11,50,21.60
2016,08,20,11,51,21.60
2016,08,20,11,52,21.60
2016,08,20,11,53,21.60
2016,08,20,11,54,21.60
2016,08,20,11,55,21.60
2016,08,20,11,56,21.60
2016,08,20,11,57,21.70
2016,08,20,11,58,21.70
2016,08,20,11,59,21.70
2016,08,20,12,00,21.70
2016,08,20,12,01,21.60
2016,08,20,12,02,21.60
2016,08,20,12,03,21.50
2016,08,20,12,04,21.40
2016,08,20,12,05,21.40
2016,08,20,12,06,21.40
2016,08,20,12,07,21.40
2016,08,20,12,08,21.40
2016,08,20,12,09,21.40
2016,08,20,12,10,21.50
2016,08,20,12,11,21.60
2016,08,20,12,12,21.60
2016,08,20,12,13,21.60
2016,08,20,12,14,21.60
2016,08,20,12,15,21.60
2016,08,20,12,16,21.60
2016,08,20,12,17,21.60
2016,08,20,12,18,21.70
2016,08,20,12,19,21.70
2016,08,20,12,20,21.70
2016,08,20,12,21,21.70
2016,08,20,12,22,21.80
2016,08,20,12,23,21.80
2016,08,20,12,24,21.90
2016,08,20,12,25,21.90
2016,08,20,12,26,22.00
2016,08,20,12,27,22.00
2016,08,20,12,28,22.00
2016,08,20,12,29,22.10
2016,08,20,12,30,22.20
2016,08,20,12,31,22.30
2016,08,20,12,32,22.30
2016,08,20,12,33,22.40
2016,08,20,12,34,22.40
2016,08,20,12,35,22.40
2016,08,20,12,36,22.40
2016,08,20,12,37,22.50
2016,08,20,12,38,22.60
2016,08,20,12,39,22.80
2016,08,20,12,40,22.80
2016,08,20,12,41,22.90
2016,08,20,12,42,23.00
2016,08,20,12,43,23.10
2016,08,20,12,44,23.10
2016,08,20,12,45,23.10
2016,08,20,12,46,23.00
2016,08,20,12,47,22.90
2016,08,20,12,48,22.80
2016,08,20,12,49,22.70
2016,08,20,12,50,22.70
2016,08,20,12,51,22.70
2016,08,20,12,52,22.70
2016,08,20,12,53,22.70
2016,08,20,12,54,22.70
2016,08,20,12,55,22.70
2016,08,20,12,56,22.70
2016,08,20,12,57,22.80
2016,08,20,12,58,22.80
2016,08,20,12,59,22.80
2016,08,20,13,00,22.80
2016,08,20,13,01,22.80
2016,08,20,13,02,22.80
2016,08,20,13,03,22.80
2016,08,20,13,04,22.70
2016,08,20,13,05,22.70
2016,08,20,13,06,22.70
2016,08,20,13,07,22.80
2016,08,20,13,08,22.90
2016,08,20,13,09,23.00
2016,08,20,13,10,23.10
2016,08,20,13,11,23.20
2016,08,20,13,12,23.30
2016,08,20,13,13,23.40
2016,08,20,13,14,23.50
2016,08,20,13,15,23.60
2016,08,20,13,16,23.70
2016,08,20,13,17,23.80
2016,08,20,13,18,23.80
2016,08,20,13,19,23.80
2016,08,20,13,20,23.80
2016,08,20,13,21,23.80
2016,08,20,13,22,23.80
2016,08,20,13,23,23.80
2016,08,20,13,24,23.80
2016,08,20,13,25,23.80
2016,08,20,13,26,23.70
2016,08,20,13,27,23.70
2016,08,20,13,28,23.70
2016,08,20,13,29,23.70
2016,08,20,13,30,23.70
2016,08,20,13,31,23.80
2016,08,20,13,32,23.80
2016,08,20,13,33,23.90
2016,08,20,13,34,23.90
2016,08,20,13,35,24.00
2016,08,20,13,36,24.00
2016,08,20,13,37,24.00
2016,08,20,13,38,23.90
2016,08,20,13,39,23.90
2016,08,20,13,40,23.80
2016,08,20,13,41,23.80
2016,08,20,13,42,23.70
2016,08,20,13,43,23.70
2016,08,20,13,44,23.80
2016,08,20,13,45,23.80
2016,08,20,13,46,23.80
2016,08,20,13,47,23.80
2016,08,20,13,48,23.70
2016,08,20,13,49,23.70
2016,08,20,13,50,23.70
2016,08,20,13,51,23.70
2016,08,20,13,52,23.80
2016,08,20,13,53,23.80
2016,08,20,13,54,23.80
2016,08,20,13,55,23.80
2016,08,20,13,56,23.90
2016,08,20,13,57,23.90
2016,08,20,13,58,24.00
2016,08,20,13,59,24.10
2016,08,20,14,00,24.20
2016,08,20,14,01,24.40
2016,08,20,14,02,24.40
2016,08,20,14,03,24.50
2016,08,20,14,04,24.60
2016,08,20,14,05,24.60
2016,08,20,14,06,24.70
2016,08,20,14,07,24.70
2016,08,20,14,08,24.70
2016,08,20,14,09,24.70
2016,08,20,14,10,24.70
2016,08,20,14,11,24.70
2016,08,20,14,12,24.70
2016,08,20,14,13,24.80
2016,08,20,14,14,24.90
2016,08,20,14,15,24.90
2016,08,20,14,16,25.00
2016,08,20,14,17,25.00
2016,08,20,14,18,25.00
2016,08,20,14,19,25.00
2016,08,20,14,20,25.00
2016,08,20,14,21,25.00
2016,08,20,14,22,25.10
2016,08,20,14,23,25.10
2016,08,20,14,24,25.10
2016,08,20,14,25,25.10
2016,08,20,14,26,25.20
2016,08,20,14,27,25.30
2016,08,20,14,28,25.30
2016,08,20,14,29,25.40
2016,08,20,14,30,25.40
2016,08,20,14,31,25.40
2016,08,20,14,32,25.30
2016,08,20,14,33,25.30
2016,08,20,14,34,25.30
2016,08,20,14,35,25.30
2016,08,20,14,36,25.30
2016,08,20,14,37,25.30
2016,08,20,14,38,25.30
2016,08,20,14,39,25.40
2016,08,20,14,40,25.50
2016,08,20,14,41,25.50
2016,08,20,14,42,25.70
2016,08,20,14,43,25.70
2016,08,20,14,44,25.70
2016,08,20,14,45,25.80
2016,08,20,14,46,25.70
2016,08,20,14,47,25.70
2016,08,20,14,48,25.80
2016,08,20,14,49,25.90
2016,08,20,14,50,25.90
2016,08,20,14,51,25.90
2016,08,20,14,52,25.90
2016,08,20,14,53,25.90
2016,08,20,14,54,25.90
2016,08,20,14,55,26.00
2016,08,20,14,56,26.00
2016,08,20,14,57,26.00
2016,08,20,14,58,26.10
2016,08,20,14,59,26.10
2016,08,20,15,00,26.20
2016,08,20,15,01,26.20
2016,08,20,15,02,26.30
2016,08,20,15,03,26.30
2016,08,20,15,04,26.20
2016,08,20,15,05,26.20
2016,08,20,15,06,26.20
2016,08,20,15,07,26.10
2016,08,20,15,08,26.10
2016,08,20,15,09,26.10
2016,08,20,15,10,26.20
2016,08,20,15,11,26.20
2016,08,20,15,12,26.20
2016,08,20,15,13,26.20
2016,08,20,15,14,26.30
2016,08,20,15,15,26.30
2016,08,20,15,16,26.30
2016,08,20,15,17,26.40
2016,08,20,15,18,26.40
2016,08,20,15,19,26.40
2016,08,20,15,20,26.40
2016,08,20,15,21,26.40
2016,08,20,15,22,26.50
2016,08,20,15,23,26.60
2016,08,20,15,24,26.70
2016,08,20,15,25,26.70
2016,08,20,15,26,26.70
2016,08,20,15,27,26.70
2016,08,20,15,28,26.70
2016,08,20,15,29,26.70
2016,08,20,15,30,26.70
2016,08,20,15,31,26.70
2016,08,20,15,32,26.70
2016,08,20,15,33,26.60
2016,08,20,15,34,26.60
2016,08,20,15,35,26.60
2016,08,20,15,36,26.70
2016,08,20,15,37,26.70
2016,08,20,15,38,26.70
2016,08,20,15,39,26.70
2016,08,20,15,40,26.70
2016,08,20,15,41,26.70
2016,08,20,15,42,26.60
2016,08,20,15,43,26.60
2016,08,20,15,44,26.60
2016,08,20,15,45,26.60
2016,08,20,15,46,26.50
2016,08,20,15,47,26.50
2016,08,20,15,48,26.50
2016,08,20,15,49,26.40
2016,08,20,15,50,26.40
2016,08,20,15,51,26.40
2016,08,20,15,52,26.40
2016,08,20,15,53,26.40
2016,08,20,15,54,26.50
2016,08,20,15,55,26.50
2016,08,20,15,56,26.40
2016,08,20,15,57,26.40
2016,08,20,15,58,26.40
2016,08,20,15,59,26.40
2016,08,20,16,00,26.50
2016,08,20,16,01,26.50
2016,08,20,16,02,26.50
2016,08,20,16,03,26.40
2016,08,20,16,04,26.40
2016,08,20,16,05,26.40
2016,08,20,16,06,26.50
2016,08,20,16,07,26.50
2016,08,20,16,08,26.50
2016,08,20,16,09,26.50
2016,08,20,16,10,26.50
2016,08,20,16,11,26.50
2016,08,20,16,12,26.50
2016,08,20,16,13,26.50
2016,08,20,16,14,26.40
2016,08,20,16,15,26.40
2016,08,20,16,16,26.40
2016,08,20,16,17,26.40
2016,08,20,16,18,26.50
2016,08,20,16,19,26.50
2016,08,20,16,20,26.60
2016,08,20,16,21,26.60
2016,08,20,16,22,26.60
2016,08,20,16,23,26.60
2016,08,20,16,24,26.70
2016,08,20,16,25,26.80
2016,08,20,16,26,26.80
2016,08,20,16,27,26.80
2016,08,20,16,28,26.80
2016,08,20,16,29,26.90
2016,08,20,16,30,26.90
2016,08,20,16,31,26.90
2016,08,20,16,32,26.90
2016,08,20,16,33,26.90
2016,08,20,16,34,27.00
2016,08,20,16,35,27.00
2016,08,20,16,36,27.10
2016,08,20,16,37,27.20
2016,08,20,16,38,27.20
2016,08,20,16,39,27.20
2016,08,20,16,40,27.20
2016,08,20,16,41,27.20
2016,08,20,16,42,27.20
2016,08,20,16,43,27.20
2016,08,20,16,44,27.20
2016,08,20,16,45,27.20
2016,08,20,16,46,27.10
2016,08,20,16,47,27.10
2016,08,20,16,48,27.20
2016,08,20,16,49,27.20
2016,08,20,16,50,27.20
2016,08,20,16,51,27.10
2016,08,20,16,52,27.00
2016,08,20,16,53,27.00
2016,08,20,16,54,27.00
2016,08,20,16,55,27.00
2016,08,20,16,56,27.00
2016,08,20,16,57,27.00
2016,08,20,16,58,27.10
2016,08,20,16,59,27.00
2016,08,20,17,00,27.00
2016,08,20,17,01,26.90
2016,08,20,17,02,26.80
2016,08,20,17,03,26.80
2016,08,20,17,04,26.80
2016,08,20,17,05,26.70
2016,08,20,17,06,26.70
2016,08,20,17,07,26.70
2016,08,20,17,08,26.60
2016,08,20,17,09,26.60
2016,08,20,17,10,26.60
2016,08,20,17,11,26.60
2016,08,20,17,12,26.60
2016,08,20,17,13,26.60
2016,08,20,17,14,26.70
2016,08,20,17,15,26.60
2016,08,20,17,16,26.60
2016,08,20,17,17,26.60
2016,08,20,17,18,26.60
2016,08,20,17,19,26.60